Akron, OH

7:39 PM EDT on June 22, 2017 (GMT -0400)
Akron Fulton International

Weather History for KAKR - September, 2013

Change the Weather History Date:

Thursday, September 19, 2013

  Actual Average (KCAK) Record (KCAK)
Temperature  
Mean Temperature 68 °F -  
Max Temperature 75 °F 72 °F 90 °F (1932)
Min Temperature 60 °F 53 °F 39 °F (1956)
Cooling Degree Days 2    
Growing Degree Days 18 (Base 50)    
Moisture  
Dew Point 62 °F    
Average Humidity 85    
Maximum Humidity 94    
Minimum Humidity 69    
Precipitation  
Precipitation 0.00 in - - ()
Sea Level Pressure  
Sea Level Pressure 30.08 in    
Wind  
Wind Speed 7 mph (SSW)    
Max Wind Speed 10 mph    
Max Gust Speed -    
Visibility 5 miles    
Events      
Averages and records for this station are not official NWS values.
T = Trace of Precipitation, MM = Missing Value Source: NWS Daily Summary

Daily Weather History Graph

Daily Weather History Graph

Search for Another Location

Airport or City:

Trip Planner

Search our weather history database for the weather conditions in past years. The results will help you decide how hot, cold, wet, or windy it might be!

Date:

Astronomy

Sep. 19, 2013 Rise Set
Actual Time 7:10 AM EDT 7:27 PM EDT
Civil Twilight 6:43 AM EDT 7:55 PM EDT
Nautical Twilight 6:10 AM EDT 8:27 PM EDT
Astronomical Twilight 5:37 AM EDT 9:00 PM EDT
Moon 7:24 PM EDT (9/19) 7:18 AM EDT (9/19)
Length of Visible Light 13h 12m
Length of Day
12h 17m
Full, 100% of the Moon is Illuminated
Sep 19
Full
Sep 26
Last Quarter
Oct 4
New
Oct 11
First Quarter
Oct 18
Full

Hourly Weather History & Observations

Time (EDT) Temp. Dew Point Humidity Pressure Visibility Wind Dir Wind Speed Gust Speed Precip Events Conditions
12:05 AM 60.8 °F 57.2 °F 88% 30.12 in 7.0 mi SSW 4.6 mph - N/A   Mostly Cloudy
12:14 AM 60.8 °F 59.0 °F 94% 30.13 in 7.0 mi SSW 8.1 mph - N/A   Overcast
12:54 AM 61.0 °F 59.0 °F 93% 30.12 in 5.0 mi SSW 9.2 mph - N/A   Overcast
1:54 AM 62.1 °F 59.0 °F 90% 30.12 in 5.0 mi SSW 6.9 mph - N/A   Overcast
2:06 AM 62.6 °F 59.0 °F 88% 30.13 in 5.0 mi SSW 4.6 mph - N/A   Overcast
2:54 AM 62.1 °F 59.0 °F 90% 30.10 in 5.0 mi SSW 3.5 mph - N/A   Overcast
3:34 AM 62.6 °F 60.8 °F 94% 30.11 in 6.0 mi SW 6.9 mph - N/A   Overcast
3:54 AM 63.0 °F 60.1 °F 90% 30.10 in 5.0 mi SSW 9.2 mph - N/A   Overcast
4:36 AM 62.6 °F 60.8 °F 94% 30.11 in 5.0 mi South 5.8 mph - N/A   Overcast
4:54 AM 63.0 °F 61.0 °F 93% 30.09 in 4.0 mi South 5.8 mph - N/A   Overcast
5:38 AM 62.6 °F 60.8 °F 94% 30.10 in 5.0 mi South 6.9 mph - N/A   Overcast
5:54 AM 63.0 °F 61.0 °F 93% 30.09 in 5.0 mi South 6.9 mph - N/A   Overcast
6:54 AM 63.0 °F 61.0 °F 93% 30.09 in 4.0 mi South 6.9 mph - N/A   Overcast
7:39 AM 62.6 °F 60.8 °F 94% 30.12 in 2.5 mi SSW 6.9 mph - N/A   Overcast
7:54 AM 63.0 °F 61.0 °F 93% 30.11 in 2.5 mi South 6.9 mph - N/A   Overcast
8:42 AM 64.4 °F 60.8 °F 88% 30.13 in 3.0 mi SSW 6.9 mph - N/A   Overcast
8:54 AM 64.0 °F 61.0 °F 90% 30.12 in 3.0 mi South 6.9 mph - N/A   Overcast
9:06 AM 64.4 °F 62.6 °F 94% 30.13 in 3.0 mi South 6.9 mph - N/A   Overcast
9:45 AM 64.4 °F 62.6 °F 94% 30.13 in 4.0 mi SSW 8.1 mph - N/A   Overcast
9:54 AM 66.0 °F 62.1 °F 87% 30.12 in 4.0 mi South 8.1 mph - N/A   Overcast
10:23 AM 66.2 °F 62.6 °F 88% 30.12 in 4.0 mi SSW 8.1 mph - N/A   Overcast
10:54 AM 68.0 °F 63.0 °F 84% 30.11 in 5.0 mi SSW 8.1 mph - N/A   Haze
11:07 AM 68.0 °F 62.6 °F 83% 30.11 in 5.0 mi SSW 5.8 mph - N/A   Haze
11:54 AM 70.0 °F 63.0 °F 78% 30.09 in 6.0 mi South 6.9 mph - N/A   Haze
12:54 PM 72.0 °F 63.0 °F 73% 30.08 in 6.0 mi SE 6.9 mph - N/A   Haze
1:54 PM 73.0 °F 63.0 °F 71% 30.07 in 6.0 mi South 5.8 mph - N/A   Haze
2:19 PM 73.4 °F 64.4 °F 73% 30.07 in 7.0 mi South 9.2 mph - N/A   Overcast
2:54 PM 73.9 °F 64.0 °F 71% 30.04 in 7.0 mi South 6.9 mph - N/A   Overcast
3:06 PM 73.4 °F 64.4 °F 73% 30.06 in 7.0 mi South 8.1 mph - N/A   Overcast
3:51 PM 75.2 °F 64.4 °F 69% 30.05 in 6.0 mi South 8.1 mph - N/A   Haze
3:54 PM 73.9 °F 64.0 °F 71% 30.03 in 6.0 mi SSE 9.2 mph - N/A   Haze
4:20 PM 71.6 °F 62.6 °F 73% 30.05 in 6.0 mi South 6.9 mph - N/A   Haze
4:54 PM 72.0 °F 63.0 °F 73% 30.05 in 6.0 mi SSW 10.4 mph - N/A   Haze
5:04 PM 71.6 °F 64.4 °F 78% 30.07 in 6.0 mi SSW 9.2 mph - N/A   Haze
5:17 PM 71.6 °F 64.4 °F 78% 30.06 in 5.0 mi South 10.4 mph - N/A   Haze
5:54 PM 70.0 °F 63.0 °F 78% 30.06 in 5.0 mi SSW 9.2 mph - N/A   Haze
6:54 PM 69.1 °F 63.0 °F 81% 30.05 in 4.0 mi SSW 9.2 mph - N/A   Haze
7:23 PM 69.8 °F 62.6 °F 78% 30.06 in 3.0 mi SSW 6.9 mph - N/A   Haze
7:54 PM 68.0 °F 63.0 °F 84% 30.03 in 5.0 mi SSW 6.9 mph - N/A   Haze
8:46 PM 68.0 °F 62.6 °F 83% 30.03 in 5.0 mi South 9.2 mph - N/A   Haze
8:54 PM 68.0 °F 63.0 °F 84% 30.02 in 5.0 mi SSW 9.2 mph - N/A   Haze
9:01 PM 68.0 °F 64.4 °F 88% 30.03 in 4.0 mi South 9.2 mph - N/A   Overcast
9:10 PM 68.0 °F 64.4 °F 88% 30.03 in 4.0 mi South 5.8 mph - N/A   Overcast
9:54 PM 68.0 °F 63.0 °F 84% 30.01 in 5.0 mi South 6.9 mph - N/A   Haze
10:54 PM 68.0 °F 64.0 °F 87% 30.02 in 5.0 mi SSW 5.8 mph - N/A   Overcast
11:54 PM 66.9 °F 64.0 °F 90% 30.01 in 5.0 mi South 9.2 mph - N/A   Mostly Cloudy